Weather Roundup
Issued by NWS Chicago, IL

Home | Current Version | Previous Version | Graphics & Text | Print | Product List | Glossary On
Versions: 1 2 3 4 5 6 7 8 9 10 11 12 13 14 15 16 17 18 19 20 21 22 23 24 25 26 27 28 29 30 31 32 33 34 35 36 37 38 39 40 41 42 43 44 45 46 47 48 49 50
000
NZUS59 KLOT 022321
HRRLOT

CHICAGO AREA WEATHER ROUNDUP
NATIONAL WEATHER SERVICE CHICAGO/ROMEOVILLE IL
600 PM CDT SUN AUG 02 2015

NOTE: "FAIR" INDICATES FEW OR NO CLOUDS BELOW 12,000 FEET WITH NO
SIGNIFICANT WEATHER AND/OR OBSTRUCTIONS TO VISIBILITY.

* THESE STATIONS ARE NOT UNDER NWS QUALITY CONTROL. THEY ALSO MAY NOT
  REPORT WEATHER SUCH AS PRECIPITATION OR FOG.

ILZ005-006-012>014-019>023-030000-
NORTHEAST ILLINOIS

CITY           SKY/WX    TMP DP  RH WIND       PRES   REMARKS
OHARE          MOSUNNY   89  69  51 SW16G32   29.65F HX  93
MIDWAY         MOSUNNY   92  68  45 SW24G35   29.67F HX  96
AURORA         SUNNY     89  70  53 SW24G31   29.69F HX  94
LANSING*       SUNNY     88  68  52 SW20G31   29.70F HX  92
JOLIET*        SUNNY     90  72  55 SW16G24   29.69F HX  96
WAUKEGAN       SUNNY     88  69  53 SW23G36   29.62S HX  92
DUPAGE AIRPORT SUNNY     88  70  55 SW26G38   29.67F HX  93
WHEELING       SUNNY     90  67  46 SW21G39   29.64F HX  93
KANKAKEE*      SUNNY     87  72  61 SW16G26   29.75F HX  93
MORRIS*        SUNNY     88  70  55 SW22G33   29.70F HX  92
LEWIS AIRPORT* SUNNY     87  68  51 SW21G30   29.69F HX  91
NORTHERLY IS     N/A     89  66  46 SW9         N/A  HX  91
$$

WIZ051-052-058>065-066-070>072-030000-
SOUTHEAST WISCONSIN

CITY           SKY/WX    TMP DP  RH WIND       PRES   REMARKS
MILWAUKEE      PTSUNNY   90  67  46 SW28G35   29.59R HX  93
KENOSHA*       SUNNY     89  69  51 SW25G38   29.61F HX  93
RACINE*        SUNNY     89  68  49 SW28G41   29.59F HX  93
BURLINGTON     SUNNY     87  68  52 SW18G28   29.61F HX  90
WAUKESHA       MOSUNNY   88  68  51 SW21G32   29.60F HX  91
WEST BEND      CLOUDY    86  64  48 W12G26    29.57S HX  87
$$

INZ001>003-010>013-019-020-030000-
NORTHWEST INDIANA

CITY           SKY/WX    TMP DP  RH WIND       PRES   REMARKS
GARY*          MOSUNNY   90  70  51 SW12G37   29.70F HX  95
MICHIGAN CITY* NOT AVBL
RENSSELAER*    NOT AVBL
VALPARAISO     MOSUNNY   89  67  47 SW24G30   29.73F HX  92
$$

LMZ740>746-030000-
SOUTHERN LAKE MICHIGAN

STATION/POSITION TIME  SKY/WX   TEMP WIND        PRES    VSBY
                                AIR  DIR/SP/G
                 (UTC)          (F)  (DEG/KT/KT) (MB)    (MI)
HARRISON CRIB    2300            88  220/ 31/ 39   N/A
BURNHAM HARBOR   2300            90  200/ 13/ 24   N/A
CALUMET HARBOR   2300            88  220/ 13/ 22   N/A
BURNS HARBOR     2223            88  220/ 23/ 26 1005.4F
MICHIGAN CITY    2300            86  190/ 21/ 28   N/A
$$

ABBREVIATIONS USED IN REMARKS
   TC - TEMPERATURE IN CELSIUS
  WCI - WIND CHILL INDEX
   HX - HEAT INDEX
  VSB - VISIBILITY
$$


USA.gov is the U.S. government's official web portal to all federal, state and local government web resources and services.